DW1256 Weather Reports


Display with metric or nautical units.
time (UTC)temp
F
wind
direction
speed
MPH
gust
MPH
rain 1hr
in
rain 24hr
in
rain mn
in
humidity
%
barometer
mb
20260505095836 55 272 3.0 7.0 0.00 0.37 0.00 79 1004.6
20260505095330 55 271 3.0 7.0 0.00 0.37 0.00 79 1004.5
20260505094824 55 299 4.0 9.0 0.00 0.37 0.00 79 1004.4
20260505094318 55 277 5.0 9.0 0.00 0.37 0.00 79 1004.8
20260505093306 55 286 3.0 8.0 0.00 0.37 0.00 80 1004.8
20260505092800 55 288 3.0 8.0 0.00 0.37 0.00 79 1004.4
20260505092254 55 284 3.0 7.0 0.00 0.37 0.00 79 1004.3
20260505090230 55 229 2.0 5.0 0.00 0.37 0.00 79 1004.0
20260505085218 55 218 3.0 9.0 0.00 0.37 0.00 79 1003.9
20260505084207 56 239 2.0 7.0 0.00 0.37 0.00 80 1003.9
20260505082648 56 226 2.0 7.0 0.00 0.37 0.00 79 1003.8
20260505082142 56 204 1.0 5.0 0.00 0.37 0.00 79 1003.7
20260505081636 56 219 1.0 4.0 0.00 0.37 0.00 79 1003.8
20260505081130 56 181 1.0 4.0 0.00 0.37 0.00 79 1003.8
20260505080625 55 224 1.0 4.0 0.00 0.37 0.00 79 1003.8
20260505080118 55 233 2.0 4.0 0.00 0.37 0.00 79 1003.5
20260505075107 55 248 1.0 3.0 0.00 0.37 0.00 78 1003.2
20260505074054 55 227 1.0 4.0 0.00 0.37 0.00 78 1002.9
20260505073548 55 195 1.0 2.0 0.00 0.37 0.00 78 1002.8
20260505072536 55 261 1.0 3.0 0.00 0.37 0.00 77 1002.7
20260505072031 55 225 0.0 3.0 0.00 0.37 0.00 77 1002.6
20260505071525 56 188 0.0 0.0 0.00 0.37 0.00 77 1002.5
20260505070512 56 246 0.0 0.0 0.00 0.37 0.00 77 1002.4
20260505064954 56 246 0.0 1.0 0.00 0.37 0.00 77 1002.4
20260505064448 56 246 0.0 1.0 0.00 0.37 0.00 77 1002.2
20260505063943 56 246 0.0 1.0 0.00 0.37 0.00 76 1001.9
20260505063437 56 246 0.0 1.0 0.00 0.37 0.00 76 1001.8
20260505062931 56 246 0.0 1.0 0.00 0.37 0.00 76 1001.8
20260505062424 56 246 0.0 2.0 0.00 0.37 0.00 76 1001.8
20260505061422 56 246 4.0 15.0 0.00 0.37 0.00 76 1001.6
20260505060422 56 271 5.0 15.0 0.00 0.37 0.00 76 1001.3
20260505055922 56 100 5.0 15.0 0.00 0.37 0.00 76 999.2
20260505055419 56 184 3.0 11.0 0.01 0.37 0.00 75 1001.9
20260505054918 56 145 1.0 5.0 0.02 0.37 0.00 75 1002.3
20260505054420 56 180 1.0 4.0 0.03 0.37 0.00 75 1002.4
20260505053918 55 199 1.0 5.0 0.03 0.37 0.00 74 1002.2
20260505052917 55 194 1.0 4.0 0.04 0.37 0.00 74 1002.1
20260505052418 55 287 1.0 3.0 0.05 0.37 0.00 74 1002.1
20260505051914 55 287 1.0 3.0 0.06 0.37 0.00 73 1001.8
20260505051413 55 287 2.0 4.0 0.07 0.37 0.00 73 1001.4
20260505050912 55 244 2.0 7.0 0.07 0.37 0.00 73 1000.8
20260505041325 55 166 1.0 4.0 0.30 0.30 0.30 67 1002.5
20260505040819 55 161 1.0 4.0 0.29 0.29 0.30 67 1002.5
20260505040313 55 273 0.0 1.0 0.28 0.28 0.28 66 1002.8
20260505035807 55 273 0.0 1.0 0.27 0.27 0.27 65 1003.0
20260505035301 55 273 1.0 4.0 0.26 0.26 0.26 65 1003.0
20260505034249 56 275 3.0 12.0 0.22 0.22 0.23 63 1003.2
20260505033750 56 339 7.0 21.0 0.20 0.20 0.21 62 1003.2
20260505033251 58 265 11.0 32.0 0.16 0.16 0.16 60 1003.5
20260505032751 61 296 10.0 32.0 0.08 0.08 0.08 56 1003.2
20260505031750 65 306 4.0 10.0 0.00 0.00 0.00 47 1002.0
20260505031250 66 340 3.0 10.0 0.00 0.00 0.00 46 1001.6
20260505030248 66 284 5.0 14.0 0.00 0.00 0.00 46 1001.2
20260505025748 67 0 4.0 10.0 0.00 0.00 0.00 46 1001.3
20260505025248 67 26 4.0 13.0 0.00 0.00 0.00 44 1001.0
20260505024245 68 0 3.0 6.0 0.00 0.00 0.00 45 1000.4
20260505023747 68 0 2.0 6.0 0.00 0.00 0.00 45 1000.0
20260505023250 68 0 2.0 6.0 0.00 0.00 0.00 45 1000.1
20260505022237 68 0 1.0 6.0 0.00 0.00 0.00 45 1000.4
20260505021225 69 0 2.0 10.0 0.00 0.00 0.00 45 1000.5
20260505020720 69 0 2.0 10.0 0.00 0.00 0.00 44 1000.5
20260505020214 69 0 2.0 4.0 0.00 0.00 0.00 44 1000.3
20260505015707 69 0 2.0 5.0 0.00 0.00 0.00 44 1000.3
20260505015201 69 0 1.0 5.0 0.00 0.00 0.00 44 1000.0
20260505014655 69 0 2.0 5.0 0.00 0.00 0.00 43 999.7
20260505014149 70 0 3.0 6.0 0.00 0.00 0.00 43 999.7
20260505013643 70 0 3.0 9.0 0.00 0.00 0.00 43 999.7
20260505013137 70 0 3.0 9.0 0.00 0.00 0.00 42 999.6
20260505012631 70 0 3.0 15.0 0.00 0.00 0.00 42 999.6
20260505011621 70 0 2.0 6.0 0.00 0.00 0.00 42 999.6
20260505011119 70 0 3.0 12.0 0.00 0.00 0.00 41 999.6
20260505010619 70 0 3.0 12.0 0.00 0.00 0.00 41 999.5
20260505010121 71 0 2.0 5.0 0.00 0.00 0.00 41 999.2
20260505005620 71 0 3.0 8.0 0.00 0.00 0.00 40 999.2
20260505005121 71 0 3.0 8.0 0.00 0.00 0.00 40 999.1
20260505004620 72 0 4.0 9.0 0.00 0.00 0.00 39 999.1
20260505004120 72 0 4.0 13.0 0.00 0.00 0.00 38 999.1
20260505003622 72 0 4.0 13.0 0.00 0.00 0.00 38 999.1
20260505002619 73 0 5.0 14.0 0.00 0.00 0.00 37 998.9
20260505002119 74 0 5.0 14.0 0.00 0.00 0.00 36 998.8
20260505001619 74 0 6.0 15.0 0.00 0.00 0.00 35 998.7
20260505001120 74 0 6.0 16.0 0.00 0.00 0.00 34 998.5
20260504235618 76 257 5.0 13.0 0.00 0.00 0.00 33 998.2
20260504235118 76 174 7.0 18.0 0.00 0.00 0.00 31 998.3
20260504234619 76 232 7.0 18.0 0.00 0.00 0.00 30 998.3
20260504233618 76 246 9.0 25.0 0.00 0.00 0.00 31 998.3
20260504233115 77 295 9.0 25.0 0.00 0.00 0.00 32 998.4
20260504232114 77 207 7.0 18.0 0.00 0.00 0.00 32 998.5
20260504231115 77 198 6.0 15.0 0.00 0.00 0.00 32 998.8
20260504230610 77 291 7.0 16.0 0.00 0.00 0.00 32 998.8
20260504225610 77 223 8.0 21.0 0.00 0.00 0.00 32 998.9
20260504224609 77 234 8.0 23.0 0.00 0.00 0.00 31 999.0
20260504223611 77 236 7.0 33.0 0.00 0.00 0.00 29 999.2
20260504223111 78 208 7.0 16.0 0.00 0.00 0.00 29 999.3
20260504222611 78 278 7.0 17.0 0.00 0.00 0.00 29 999.2
20260504222106 78 181 7.0 18.0 0.00 0.00 0.00 28 999.4
20260504221106 77 187 7.0 16.0 0.00 0.00 0.00 29 999.4
20260504220606 77 198 7.0 16.0 0.00 0.00 0.00 29 999.5
20260504220106 77 205 6.0 16.0 0.00 0.00 0.00 29 999.6
20260504215606 78 215 6.0 19.0 0.00 0.00 0.00 31 999.7
20260504215107 77 172 8.0 19.0 0.00 0.00 0.00 28 999.7
20260504214606 77 0 9.0 26.0 0.00 0.00 0.00 29 999.7
20260504214107 76 0 10.0 26.0 0.00 0.00 0.00 30 999.7
20260504213602 77 0 9.0 25.0 0.00 0.00 0.00 29 999.9
20260504213102 76 0 8.0 26.0 0.00 0.00 0.00 29 1000.0
20260504212602 77 221 8.0 26.0 0.00 0.00 0.00 29 1000.0
20260504212102 78 90 9.0 22.0 0.00 0.00 0.00 29 1000.1
20260504210601 77 132 6.0 14.0 0.00 0.00 0.00 35 1000.2
20260504210101 77 196 6.0 13.0 0.00 0.00 0.00 36 1000.3
20260504205602 77 244 7.0 19.0 0.00 0.00 0.00 36 1000.4
20260504205057 77 245 6.0 19.0 0.00 0.00 0.00 37 1000.4
20260504204559 77 242 6.0 17.0 0.00 0.00 0.00 38 1000.4
20260504204058 77 216 6.0 22.0 0.00 0.00 0.00 38 1000.5
20260504203558 77 162 6.0 22.0 0.00 0.00 0.00 39 1000.5
20260504203058 77 0 6.0 17.0 0.00 0.00 0.00 41 1000.6
20260504202558 76 0 8.0 23.0 0.00 0.00 0.00 39 1000.6
20260504202057 76 0 8.0 23.0 0.00 0.00 0.00 39 1000.8
20260504201557 77 168 6.0 21.0 0.00 0.00 0.00 39 1000.8
20260504200553 75 0 6.0 14.0 0.00 0.00 0.00 42 1000.9
20260504200054 76 0 6.0 14.0 0.00 0.00 0.00 41 1001.0
20260504195553 76 0 6.0 14.0 0.00 0.00 0.00 41 1001.1
20260504195054 76 0 6.0 14.0 0.00 0.00 0.00 39 1001.2
20260504194553 76 0 6.0 14.0 0.00 0.00 0.00 40 1001.2
20260504194056 76 0 7.0 15.0 0.00 0.00 0.00 40 1001.3
20260504193556 76 132 8.0 19.0 0.00 0.00 0.00 39 1001.3
20260504193057 75 0 9.0 21.0 0.00 0.00 0.00 38 1001.3
20260504192557 75 231 8.0 21.0 0.00 0.00 0.00 38 1001.5
20260504192055 76 0 7.0 20.0 0.00 0.00 0.00 36 1001.5
20260504191552 76 0 6.0 20.0 0.00 0.00 0.00 35 1001.4
20260504191052 76 0 6.0 17.0 0.00 0.00 0.00 34 1001.2
20260504190549 76 0 8.0 17.0 0.00 0.00 0.00 35 1001.2
20260504190051 76 200 8.0 17.0 0.00 0.00 0.00 34 1001.2
20260504185549 76 242 8.0 20.0 0.00 0.00 0.00 36 1001.3
20260504184550 76 0 8.0 18.0 0.00 0.00 0.00 33 1001.3
20260504184051 76 0 8.0 18.0 0.00 0.00 0.00 35 1001.3
20260504183550 76 0 8.0 23.0 0.00 0.00 0.00 33 1001.3
20260504181540 76 260 7.0 22.0 0.00 0.00 0.00 35 1001.6
20260504181037 76 0 7.0 22.0 0.00 0.00 0.00 33 1001.6
20260504180538 77 0 8.0 19.0 0.00 0.00 0.00 33 1001.6
20260504175538 76 0 9.0 22.0 0.00 0.00 0.00 31 1001.6
20260504174538 76 0 10.0 21.0 0.00 0.00 0.00 32 1001.6
20260504174037 76 0 11.0 23.0 0.00 0.00 0.00 30 1001.6
20260504173538 76 242 11.0 23.0 0.00 0.00 0.00 32 1001.8
20260504173038 76 0 10.0 20.0 0.00 0.00 0.00 32 1001.6
20260504171538 77 0 10.0 21.0 0.00 0.00 0.00 32 1001.6
20260504170541 76 0 10.0 19.0 0.00 0.00 0.00 33 1001.6
20260504160429 75 0 5.0 11.0 0.00 0.00 0.00 38 1001.9
20260504150418 70 0 5.0 16.0 0.00 0.00 0.00 45 1002.4
20260504141334 67 0 4.0 11.0 0.00 0.00 0.00 47 1003.4
20260504140322 65 0 3.0 8.0 0.00 0.00 0.00 51 1003.5
20260504130716 58 0 3.0 7.0 0.00 0.00 0.00 63 1004.3
20260504120202 50 212 2.0 6.0 0.00 0.00 0.00 68 1004.4
20260504110621 48 194 1.0 4.0 0.00 0.00 0.00 66 1004.2
20260504110114 48 166 1.0 3.0 0.00 0.00 0.00 66 1004.1
20260504100508 49 164 1.0 4.0 0.00 0.00 0.00 65 1004.3